Home > Weather > Neenah > Past weeks

Flag for USA Past Weather in Neenah, Wisconsin, USA — Yesterday and Last 2 Weeks

Now
75 °F

Passing clouds.


Feels Like: 77 °F
Forecast: 68 / 86 °F
Wind: 6 mph from Southwest

Location: Appleton / Outagamie

Current Time: Jul 26, 2016 at 10:53:21 PM

Latest Report: Jul 26, 2016 at 9:45 PM


Visibility: 10 mi

Pressure: 29.98 "Hg

Humidity: 69%

Dew Point: 64 °F

Location of NeenahLocation

Past Weather in Neenah — Graph

°F

Neenah Temperature Yesterday

Maximum temperature yesterday: 82 °F (at 1:45 PM)
Minimum temperature yesterday: 64 °F (at 3:35 AM)
Average temperature yesterday: 71 °F

High & Low Weather Summary for the Past Weeks

 TemperatureHumidityPressure
High90 °F (Jul 22, 3:45 PM)100% (Jul 13, 1:55 AM)30.26 "Hg (Jul 13, 1:55 AM)
Low52 °F (Jul 16, 4:15 AM)38% (Jul 22, 5:45 PM)29.67 "Hg (Jul 13, 5:45 PM)
Average71 °F74%29.96 "Hg
* Reported Jul 11 9:45 PM — Jul 26 9:45 PM, Neenah, Weather by CustomWeather, © 2016

Note: Actual official high and low records may vary slightly from our data, if they occured in-between our weather recording intervals... More about our weather records

Advertising

Neenah Weather History for the Previous 24 Hours

Scroll right to see more
 ConditionsComfort  
Time TempWeatherWind HumidityBarometerVisibility
9:45 PM
Tue, Jul 26
75 °FPassing clouds.6 mph69%29.98 "Hg10 mi
8:45 PM75 °FScattered clouds.6 mph69%29.97 "Hg10 mi
7:45 PM81 °FScattered clouds.7 mph58%29.97 "Hg10 mi
5:45 PM84 °FSunny.10 mph48%29.98 "Hg10 mi
4:45 PM84 °FPassing clouds.9 mph48%29.98 "Hg10 mi
3:45 PM84 °FScattered clouds.8 mph48%30.01 "Hg10 mi
2:45 PM84 °FScattered clouds.10 mph45%30.01 "Hg10 mi
1:45 PM82 °FPartly sunny.9 mph48%30.03 "Hg10 mi
12:45 PM81 °FPartly sunny.7 mph54%30.05 "Hg10 mi
11:45 AM82 °FPartly sunny.8 mph51%30.06 "Hg10 mi
10:45 AM81 °FSunny.6 mph58%30.05 "Hg10 mi
9:45 AM75 °FSunny.No wind69%30.05 "Hg10 mi
8:45 AM73 °FPassing clouds.No wind69%30.06 "Hg10 mi
7:45 AM70 °FPassing clouds.No wind78%30.06 "Hg10 mi
6:45 AM66 °FPassing clouds.8 mph94%30.05 "Hg10 mi
5:45 AM63 °FClear.3 mph94%30.04 "Hg10 mi
5:15 AM63 °FClear.7 mph94%30.04 "Hg10 mi
4:55 AM63 °FClear.8 mph94%30.04 "Hg10 mi
4:35 AM63 °FClear.8 mph94%30.04 "Hg10 mi
4:15 AM64 °FClear.8 mph83%30.04 "Hg10 mi
3:55 AM64 °FClear.9 mph88%30.04 "Hg10 mi
3:35 AM63 °FClear.9 mph94%30.03 "Hg10 mi
3:15 AM64 °FClear.9 mph94%30.02 "Hg10 mi
2:55 AM64 °FClear.9 mph94%30.02 "Hg10 mi
2:35 AM64 °FClear.9 mph88%30.02 "Hg10 mi
2:15 AM64 °FClear.9 mph88%30.02 "Hg10 mi
1:55 AM64 °FClear.8 mph88%30.03 "Hg10 mi
1:35 AM66 °FClear.9 mph78%30.03 "Hg10 mi
1:15 AM66 °FClear.9 mph78%30.03 "Hg10 mi
12:55 AM66 °FClear.9 mph78%30.03 "Hg10 mi
12:35 AM66 °FClear.8 mph78%30.03 "Hg10 mi
12:15 AM66 °FClear.8 mph78%30.02 "Hg10 mi
11:55 PM
Mon, Jul 25
68 °FClear.8 mph73%30.02 "Hg10 mi
11:35 PM68 °FClear.8 mph73%30.01 "Hg10 mi
11:15 PM68 °FClear.8 mph73%30.01 "Hg10 mi
10:45 PM70 °FClear.5 mph73%30.01 "Hg10 mi
Weather by CustomWeather, © 2016

See weather overviewHow to use our weather pages